OpenBCM V1.13 (Linux)

Packet Radio Mailbox

DB0FHN

[JN59NK Nuernberg]

 Login: GUEST





  
LU9DCE > KEP      14.06.19 20:33l 243 Lines 11988 Bytes #999 (0) @ WW
BID : 26786_LU9DCE
Read: DJ6UX DF7EAV GUEST
Subj: TLE 14 06
Path: DB0FHN<DB0BLO<DB0ERF<DB0RES<IR2UBX<IZ3LSV<IW0QNL<JH4XSY<N3HYM<LU9DCE
Sent: 190614/1806Z 26786@LU9DCE.TOR.BA.ARG.SOAM LinBPQ6.0.18

            __    _  _  ___  ____   ___  ____    ____  ____  ____
           (  )  / )( \/ _ \(    \ / __)(  __)  (  _ \(  _ \/ ___)
           / (_/\) \/ (\__  )) D (( (__  ) _)    ) _ ( ) _ (\___ \
           \____/\____/(___/(____/ \___)(____)  (____/(____/(____/
               ESTACION DE PACKET RADIO - BUENOS AIRES (GF05OM)
                   BOLETINES INFORMATIVOS PROGRAMADOS (BIP)
                  SLACKWARE LINUX - HELLOCODELINUX@GMAIL.COM

+----------------------------------------------------------------------------+
OSCAR 7
1  7530U 74089B   19164.91794543 -.00000045  00000-0  88337-8 0  9993
2  7530 101.7444 132.6278 0012252 358.5842  65.3081 12.53638374 39922
OSCAR 11 (UoSAT 2)
1 14781U 84021B   19164.64004336  .00000064  00000-0  13948-4 0  9992
2 14781  97.6109 189.5977 0007977 346.9294  13.1713 14.83089825898018
OSCAR 19 (LUSAT)
1 20442U 90005G   19165.06054697 -.00000015  00000-0  10625-4 0  9990
2 20442  98.6484 107.0682 0012108 157.7775 202.3936 14.32926806535715
EYESAT A
1 22825U 93061C   19164.88212719 -.00000011 +00000-0 +13856-4 0  9997
2 22825 098.9027 153.4094 0008763 020.4045 339.7485 14.30060317340990
ITAMSAT
1 22826U 93061D   19164.88491382 -.00000013  00000-0  12880-4 0  9991
2 22826  98.8967 153.4042 0009062   9.2720 350.8627 14.30393839341467
RADIO ROSTO
1 23439U 94085A   19164.90419813 -.00000045 +00000-0 -62438-4 0  9991
2 23439 064.8153 123.8661 0146219 114.1514 247.4775 11.27568133007355
JAS 2
1 24278U 96046B   19164.89095208 -.00000019 +00000-0 +18851-4 0  9998
2 24278 098.5363 318.9531 0349292 252.4186 103.8519 13.53091911126904
TECHSAT 1B
1 25397U 98043D   19165.05124824 -.00000029  00000-0  66018-5 0  9996
2 25397  98.6886 105.2515 0002319  68.2072 291.9353 14.23666490 87213
ISS (ZARYA)
1 25544U 98067A   19165.54313388  .00001529  00000-0  33477-4 0  9992
2 25544  51.6435  14.4245 0008258  48.4123  37.9930 15.51199682174843
PCSAT
1 26931U 01043C   19165.02617108 -.00000024  00000-0  22523-4 0  9991
2 26931  67.0519  15.7203 0006616 279.4047  80.6306 14.30544418924306
SAUDISAT 1C
1 27607U 02058C   19165.14132697 -.00000057  00000-0  13019-4 0  9993
2 27607  64.5559  63.5091 0081506 257.4110 101.7868 14.75551964886361
CUTE-1
1 27844U 03031E   19165.00960392  .00000042  00000-0  38436-4 0  9997
2 27844  98.6835 173.2933 0010782  49.8630 310.3490 14.22180775827624
CUBESAT XI 4
1 27848U 03031J   19165.00040885  .00000034  00000-0  35425-4 0  9993
2 27848  98.6913 173.7834 0010821  60.0169 300.2081 14.21775512827471
MOZHAYETS 4
1 27939U 03042A   19165.40934245  .00000072  00000-0  21511-4 0  9995
2 27939  98.0396 301.3101 0014289  82.4727 277.8105 14.66784310839910
CUBESAT XI 5
1 28895U 05043F   19164.85974183 +.00000090 +00000-0 +26093-4 0  9993
2 28895 097.9585 307.7565 0016939 012.0213 348.1390 14.63667458726549
CUTE-1.7+APD II
1 32785U 08021C   19164.77754890  .00000160  00000-0  22875-4 0  9999
2 32785  97.5491 164.7240 0011480 280.8548  79.1377 14.88308783602951
DELFI C3
1 32789U 08021G   19165.36838207  .00001035  00000-0  73142-4 0  9999
2 32789  97.4643 215.1647 0013513 135.1574 225.0748 15.06941831606311
SEEDS
1 32791U 08021J   19165.00564565  .00000170  00000-0  22632-4 0  9993
2 32791  97.5275 170.9101 0011747 251.5077 108.4865 14.90818318603414
YUBELEINY
1 32953U 08025A   19165.45943360  .00000021  00000-0  75656-4 0  9999
2 32953  82.4994 147.3969 0019935 135.0498 225.2203 12.43089941501784
PRISM (HITOMI)
1 33493U 09002B   19164.78177863  .00000522  00000-0  51323-4 0  9998
2 33493  98.1220  85.5501 0014709 194.5338 165.5462 14.96645588564419
KKS-1 (KISEKI)
1 33499U 09002H   19165.13101723  .00000064  00000-0  17470-4 0  9992
2 33499  98.3506   3.6936 0008356 214.5335 145.5331 14.75440791558555
SWISSCUBE
1 35932U 09051B   19165.13088093  .00000106  00000-0  34964-4 0  9998
2 35932  98.5874 330.9704 0007837 170.3495 189.7854 14.56283800516118
BEESAT
1 35933U 09051C   19165.47764905  .00000088  00000-0  30786-4 0  9996
2 35933  98.5902 333.0837 0005773 179.4478 180.6726 14.56373181516277
ITUPSAT 1
1 35935U 09051E   19164.91420069 +.00000064 +00000-0 +25844-4 0  9999
2 35935 098.6012 332.7420 0008079 181.9307 178.1860 14.55533204515911
XIWANG-1 (HOPE-1)
1 36122U 09072B   19164.71943355 -.00000045  00000-0 -62513-5 0  9993
2 36122 100.0725 167.3333 0007593   3.3038 356.8120 13.16349815456223
TISAT 1
1 36799U 10035E   19165.45465231  .00000243  00000-0  30579-4 0  9992
2 36799  98.1551 317.4665 0013701  99.4140 260.8626 14.91100796484134
JUGNU
1 37839U 11058B   19161.06731455  .00000303  00000-0  19646-4 0  9990
2 37839  19.9627  27.0744 0018910 231.8973 293.9955 14.12652011396038
SRMSAT
1 37841U 11058D   19165.05893624  .00000285  00000-0  11204-4 0  9994
2 37841  19.9731  59.5467 0011962 145.5570 347.7476 14.10633355396037
M-CUBED/EXP-1 PRIME
1 37855U 11061F   19164.68164383  .00000798  00000-0  47757-4 0  9995
2 37855 101.7155  57.7094 0173767  91.6354 270.4769 15.05399639416029
HORYU 2
1 38340U 12025D   19165.10046384  .00000128  00000-0  26661-4 0  9992
2 38340  98.3291 203.5537 0012561 134.5628 225.6608 14.75717696380486
STRAND 1
1 39090U 13009E   19165.11472641  .00000040  00000-0  29184-4 0  9994
2 39090  98.4890  11.1506 0008168 307.8886  52.1560 14.35086810329737
SOMP
1 39134U 13015E   19164.88637389 +.00000840 +00000-0 +47753-4 0  9995
2 39134 064.8640 036.0071 0029934 303.6891 056.1383 15.20144434339485
BEESAT 3
1 39135U 13015F   19165.45906734  .00000817  00000-0  50370-4 0  9996
2 39135  64.8693  52.3888 0020350 323.1874  36.7854 15.17455829339602
BEESAT 2
1 39136U 13015G   19165.09889349  .00000655  00000-0  42975-4 0  9991
2 39136  64.8700  57.3593 0019092 302.0168  57.9102 15.16883326339475
CUBEBUG 1
1 39153U 13018D   19165.23511253  .00000122  00000-0  22813-4 0  9993
2 39153  97.9780 263.3850 0016297 208.5891 151.4429 14.80565250331153
ZACUBE
1 39417U 13066B   19165.04356183  .00000164  00000-0  26839-4 0  9995
2 39417  97.5623 178.8067 0060210  50.3019 310.3482 14.81112557300359
TRITON 1
1 39427U 13066M   19164.95625552  .00000156  00000-0  32830-4 0  9993
2 39427  97.6754 142.6273 0113735 179.8775 180.2478 14.67837912297640
GOMX 1
1 39430U 13066Q   19165.43968827  .00000166  00000-0  39491-4 0  9997
2 39430  97.7462 122.2716 0149723 267.8158  90.5891 14.59250907295987
HUMSAT D
1 39433U 13066T   19164.71856445  .00000137  00000-0  18791-4 0  9990
2 39433  97.5538 212.4275 0029580 319.6869  40.2157 14.92185780302335
CUBEBUG 2
1 39440U 13066AA  19164.93748527 +.00000162 +00000-0 +29255-4 0  9998
2 39440 097.6016 163.6556 0081870 100.2344 260.8111 14.75850774298074
FUNCUBE 1
1 39444U 13066AE  19165.04668972  .00000204  00000-0  31364-4 0  9991
2 39444  97.5604 180.7505 0059206  44.3592 316.2343 14.81930551299247
UWE-3
1 39446U 13066AG  19164.54365391  .00000167  00000-0  28675-4 0  9995
2 39446  97.5808 170.3007 0071640  77.1987 283.7218 14.78385076298504
SPROUT
1 39770U 14029E   19165.25861407  .00000482  00000-0  59454-4 0  9992
2 39770  97.8836 268.5792 0010365  97.7025 262.5397 14.87332565274172
UNISAT 6
1 40012U 14033C   19165.12748714  .00000130  00000-0  26612-4 0  9999
2 40012  97.7584  31.9362 0059713 111.9991 248.7577 14.73975060268018
DUCHIFAT 1
1 40021U 14033M   19165.44930463  .00000252  00000-0  31575-4 0  9997
2 40021  97.9243  90.0288 0014426  66.4457 293.8274 14.90623612270917
QB50P1
1 40025U 14033R   19164.72720680 +.00000220 +00000-0 +29434-4 0  9995
2 40025 097.9065 084.4193 0013942 077.0784 283.1989 14.88938702270076
CHUBUSAT 1
1 40300U 14070C   19165.18304313  .00000548  00000-0  26817-4 0  9999
2 40300  97.3278 239.4817 0021635  72.5029 339.7954 15.22077002255335
NUDT-PHONESAT
1 40900U 15049B   19165.44049016  .00001446  00000-0  64875-4 0  9991
2 40900  97.4367 174.8174 0012338 192.3381 274.8144 15.22756295207011
ZDPS 2A
1 40901U 15049C   19165.39390296  .00000688  00000-0  37428-4 0  9996
2 40901  97.4593 171.2797 0012328 212.1193 253.7627 15.17712350206587
ZDPS 2B
1 40902U 15049D   19165.55268138  .00000890  00000-0  47670-4 0  9999
2 40902  97.4536 168.9551 0012378 208.5384 269.0348 15.17523378206582
XW-2A
1 40903U 15049E   19165.43115510  .00001545  00000-0  38406-4 0  9997
2 40903  97.3384 208.1712 0014259 153.5858 302.3097 15.41821289209599
KAITUO 1A
1 40904U 15049F   19165.57714757  .00000086  00000-0  80454-5 0  9991
2 40904  97.4663 167.6564 0013401 217.2336 256.9983 15.15354521206374
OBJECT G
1 40905U 15049G   19165.45834005  .00000510  00000-0  31401-4 0  9997
2 40905  97.4702 165.1016 0014592 212.5596 272.6013 15.14286464206235
XW-2C
1 40906U 15049H   19165.45491795  .00000314  00000-0  19982-4 0  9995
2 40906  97.4665 167.6042 0013745 208.8088 308.7801 15.15662438206352
XW-2D
1 40907U 15049J   19165.55745709  .00000409  00000-0  24840-4 0  9998
2 40907  97.4649 167.3829 0013214 205.0831 270.9155 15.15849358206384
LILACSAT 2
1 40908U 15049K   19165.02814641 -.00000066  00000-0  19950-9 0  9994
2 40908  97.4782 165.7285 0014669 214.6851 211.2419 15.13791797206106
XW-2F
1 40910U 15049M   19165.38957571  .00000844  00000-0  45672-4 0  9994
2 40910  97.4620 169.1835 0013924 199.1926 266.7217 15.17277152206369
XW-2B
1 40911U 15049N   19165.39005137  .00000588  00000-0  34239-4 0  9990
2 40911  97.4675 167.8631 0013137 205.9920 260.0064 15.15781552206252
KAITUO 1B
1 40912U 15049P   19165.49717274  .00000827  00000-0  41991-4 0  9993
2 40912  97.4494 172.9066 0014638 180.6872 308.2348 15.19584456206677
TIANWANG 1C (TW-1C)
1 40926U 15051B   19165.53679985  .00008530  00000-0  12555-3 0  9994
2 40926  97.1364 211.7174 0009031  39.3685  66.6861 15.55635933209518
